Location: Svitavy
(49.7500°N, 16.4667°E)
Time: 21:18:14
(UTC+02:00)

ISS - Visible Passes

Search period start: 24 May 2018 00:00
Search period end: 03 June 2018 00:00
Orbit: 402 x 407 km, 51.6° (Epoch: 25 May)

Date Brightness Start Highest point End Pass type
(mag) Time Alt. Az. Time Alt. Az. Time Alt. Az.
24 May -3.9 01:22:56 10° WNW 01:26:12 86° NNE 01:27:54 26° ESE visible
24 May -1.7 02:59:39 10° W 03:00:18 14° W 03:00:18 14° W visible
24 May -3.5 22:54:03 10° W 22:57:19 67° N 23:00:35 10° ENE visible
25 May -3.6 00:30:43 10° WNW 00:33:59 69° N 00:35:43 25° E visible
25 May -1.8 02:07:18 10° W 02:08:18 18° W 02:08:18 18° W visible
25 May -3.8 22:01:49 10° WSW 22:05:06 82° NNW 22:08:22 10° ENE visible
25 May -3.3 23:38:29 10° WNW 23:41:44 61° N 23:44:38 12° E visible
26 May -3.0 01:15:02 10° WNW 01:17:15 37° W 01:17:15 37° W visible
26 May -3.3 22:46:14 10° W 22:49:28 59° N 22:52:42 10° E visible
27 May -4.0 00:22:49 10° WNW 00:26:05 86° SSW 00:26:25 70° ESE visible
27 May -3.4 21:53:55 10° W 21:57:11 64° N 22:00:26 10° ENE visible
27 May -3.7 23:30:34 10° WNW 23:33:51 74° NNE 23:35:41 24° E visible
28 May -1.8 01:07:11 10° W 01:08:19 18° W 01:08:19 18° W visible
28 May -3.4 22:38:18 10° WNW 22:41:33 63° N 22:44:49 10° E visible
29 May -3.5 00:14:51 10° WNW 00:17:38 48° WSW 00:17:38 48° WSW visible
29 May -3.2 21:46:00 10° W 21:49:15 59° N 21:52:29 10° E visible
29 May -4.0 23:22:34 10° WNW 23:25:51 77° SSW 23:27:01 37° ESE visible
30 May -1.1 00:59:33 10° W 00:59:38 10° W 00:59:38 10° W visible
30 May -3.8 22:30:18 10° WNW 22:33:35 80° NNE 22:36:24 13° ESE visible
31 May -2.4 00:06:58 10° W 00:09:02 26° WSW 00:09:02 26° WSW visible
31 May -3.5 21:38:01 10° WNW 21:41:16 66° N 21:44:32 10° E visible
31 May -3.5 23:14:34 10° WNW 23:17:43 45° SSW 23:18:27 37° SSE visible
01 Jun -3.8 22:22:14 10° WNW 22:25:29 68° SSW 22:27:53 17° ESE visible
01 Jun -1.6 23:59:25 10° W 00:00:31 14° WSW 00:00:31 14° WSW visible
02 Jun -2.5 23:06:40 10° W 23:09:25 25° SW 23:09:59 24° SSW visible
